Regional Weather Roundup
Issued by NWS Albany, NY

Home | Current Version | Previous Version | Text Only | Print | Product List | Glossary On
Versions: 1 2 3 4 5 6 7 8 9 10 11 12 13 14 15 16 17 18 19 20 21 22 23 24 25 26 27 28 29 30 31 32 33 34 35 36 37 38 39 40 41 42 43 44 45 46 47 48 49 50
000
ASUS41 KALY 021910
RWRALY

NEW YORK STATE HOURLY WEATHER ROUNDUP
NATIONAL WEATHER SERVICE ALBANY NY
300 PM EDT WED SEP 02 2015

NOTE: "FAIR" INDICATES FEW OR NO CLOUDS BELOW 12,000 FEET WITH NO
SIGNIFICANT WEATHER AND/OR NO OBSTRUCTIONS TO VISIBILITY.

NYZ032-033-038>043-046>054-057>066-NYZ062>081-022000-
EAST


CITY           SKY/WX    TMP DP  RH WIND       PRES   REMARKS
ALBANY         MOSUNNY   88  64  44 CALM      29.94F
GLENS FALLS    SUNNY     84  65  52 S6        29.93F
POUGHKEEPSIE   MOSUNNY   91  60  35 VRB5      29.93F HX  90
NEWBURGH       MOSUNNY   88  64  45 W9        29.96F
MONTGOMERY     MOSUNNY   91  64  40 NW10      29.94F HX  92
WHITE PLAINS   MOSUNNY   88  66  48 S9        29.95F HX  90
ISLIP          PTSUNNY   84  64  50 SW12      29.95F
NEW YORK CITY  PTSUNNY   87  66  49 S12       29.93F
CENTRAL PARK   MOSUNNY   89  67  47 S8        29.96F HX  92
$$

NYZ005>009-017-018-044>046-055-056-022000-
CENTRAL


CITY           SKY/WX    TMP DP  RH WIND       PRES   REMARKS
FULTON         MOSUNNY   82  70  66 W9        29.99F
SYRACUSE       MOSUNNY   83  70  64 N8        29.98F
ROME           MOSUNNY   82  68  62 NW9       29.99F
ELMIRA         MOSUNNY   88  65  46 N9        29.99F HX  90
BINGHAMTON     MOSUNNY   82  63  52 W6        30.04F
MONTICELLO     PTSUNNY   84  64  51 W6        30.02F
$$

NYZ026>034-041>043-022000-
NORTH


CITY           SKY/WX    TMP DP  RH WIND       PRES   REMARKS
WATERTOWN      MOSUNNY   79  68  69 SW9       29.97F HAZE
FORT DRUM      NOT AVBL
MASSENA        PTSUNNY   79  69  71 SW7       29.95F
SARANAC LAKE   SUNNY     80  60  50 NW8       29.99F
PLATTSBURGH    MOSUNNY   81  67  62 SE8       29.92F
$$

NYZ001>004-010>016-019>021-022000-
WEST


CITY           SKY/WX    TMP DP  RH WIND       PRES   REMARKS
NIAGARA FALLS  PTSUNNY   82  66  58 NW5       29.99R THUNDER
BUFFALO        MOSUNNY   83  69  62 SW14      30.00F
DUNKIRK        SUNNY     81  70  69 W8        30.02S
JAMESTOWN      MOSUNNY   82  64  54 NW8G16    30.06F
WELLSVILLE     MOSUNNY   85  63  47 NW8       30.08F
ROCHESTER      MOSUNNY   87  68  52 W7        29.98F HX  90
PENN YAN       MOSUNNY   84  68  58 W7        30.01F
$$

             KEY
       WCI = WIND CHILL INDEX
       VSB = VISIBILITY
       HX  = HEAT INDEX
$$


USA.gov is the U.S. government's official web portal to all federal, state and local government web resources and services.